Tracking 30692 objects as of 16-Jun-2025
HD Live streaming from Space Station
objects crossing your sky now

TIANMU-1 16

Track TIANMU-1 16 now!
10-day predictions


NORAD ID: 58701
Int'l Code: 2024-004B
Perigee: 502.2 km
Apogee: 511.5 km
Inclination: 97.5 °
Period: 94.6 minutes
Semi major axis: 6877 km
RCS: Unknown
Launch date: January 5, 2024
Source: People's Republic of China (PRC)
Launch site: Jiuquan Satellite Launch Center, China (JSC)
Your satellite tracking list
Your tracking list is empty




NASA's NSSDC Master Catalog

Two Line Element Set (TLE):
1 58701U 24004B   25167.61519506  .00004210  00000-0  18723-3 0  9996
2 58701  97.4593 349.6412 0006704 192.0487 168.0589 15.22029108 80080
Source of the keplerian elements: AFSPC